EST,Max TemperatureF,Mean TemperatureF,Min TemperatureF,Max Dew PointF,MeanDew PointF,Min DewpointF,Max Humidity, Mean Humidity, Min Humidity, Max Sea Level PressureIn, Mean Sea Level PressureIn, Min Sea Level PressureIn, Max VisibilityMiles, Mean VisibilityMiles, Min VisibilityMiles, Max Wind SpeedMPH, Mean Wind SpeedMPH, Max Gust SpeedMPH,PrecipitationIn, CloudCover, Events, WindDirDegrees
2012-11-1,44,38,33,34,30,25,87,74,53,29.84,29.74,29.70,10,10,7,24,13,37,0.00,7,Rain,321
2012-11-2,39,36,32,32,29,27,87,81,70,30.16,30.01,29.85,10,10,4,18,10,31,0.00,8,Rain-Snow,337
2012-11-3,37,34,32,28,26,25,87,74,65,30.24,30.21,30.16,10,10,10,12,6,,0.00,8,,343
2012-11-4,42,36,30,30,27,23,81,71,53,30.24,30.22,30.19,10,10,10,13,5,20,0.00,7,Snow,350
2012-11-5,33,28,24,25,20,16,75,67,55,30.30,30.23,30.12,10,10,10,13,5,,0.00,8,,31
2012-11-6,41,34,28,36,31,23,87,78,61,30.11,29.98,29.91,10,10,2,14,4,21,0.00,8,Rain,172
2012-11-7,44,42,41,36,33,28,81,70,61,30.13,30.08,29.98,10,10,10,13,8,17,0.00,8,,152
2012-11-8,44,42,39,37,36,34,87,77,66,30.13,30.07,30.00,10,10,7,17,5,26,0.00,7,,225
2012-11-9,46,42,37,39,36,34,93,81,71,30.16,30.11,30.03,10,9,5,14,5,17,0.00,8,,349
2012-11-10,48,42,37,46,39,32,93,88,81,30.16,30.02,29.82,10,7,1,23,10,33,0.00,8,Rain,90
2012-11-11,57,52,48,52,48,46,94,85,72,29.83,29.74,29.63,10,9,3,25,12,38,0.00,5,Rain,186
2012-11-12,50,37,24,48,26,12,94,76,55,30.10,29.87,29.69,10,9,2,17,10,25,0.00,8,Rain-Snow,252
2012-11-13,37,30,23,28,22,16,80,68,48,30.41,30.31,30.11,10,10,10,15,9,23,0.00,0,,248
2012-11-14,44,38,33,37,32,25,81,73,49,30.43,30.39,30.31,10,10,10,20,8,30,0.00,6,,199
2012-11-15,48,42,35,39,36,30,93,77,62,30.33,30.26,30.21,10,10,7,17,13,25,0.00,4,,219
2012-11-16,41,32,24,30,22,16,87,69,36,30.52,30.46,30.34,10,10,10,9,4,,0.00,0,,348
2012-11-17,48,34,19,43,32,16,93,83,74,30.50,30.47,30.45,10,9,5,12,3,17,0.00,2,,192
2012-11-18,50,47,44,43,41,39,87,81,71,30.45,30.39,30.31,10,10,7,13,8,16,0.00,0,,176
2012-11-19,48,46,44,45,42,39,93,84,76,30.31,30.21,30.09,10,10,7,10,8,,0.00,3,,173
2012-11-20,51,46,41,45,42,37,93,87,71,30.15,30.10,30.07,10,5,2,7,3,,0.00,6,,215
2012-11-21,48,45,42,45,43,39,93,90,87,30.15,30.06,29.92,10,3,2,16,7,23,0.00,8,,197
2012-11-22,51,48,46,46,45,43,93,87,76,29.92,29.72,29.50,7,5,2,17,11,24,0.00,0,,201
2012-11-23,48,38,26,45,29,23,93,87,80,29.99,29.68,29.43,10,4,0,25,13,39,0.00,8,Rain-Snow,292
2012-11-24,28,26,23,25,20,18,93,78,69,30.10,30.04,29.91,10,9,1,17,9,28,0.00,8,Snow,310
2012-11-25,30,26,23,25,21,18,86,80,69,29.95,29.81,29.74,10,9,2,16,7,24,0.00,7,Snow,278
2012-11-26,26,20,15,19,15,10,80,72,55,30.28,30.14,29.96,10,10,3,15,10,20,0.00,6,Snow,291
2012-11-27,32,22,12,25,17,9,93,76,64,30.28,30.17,30.05,10,9,1,16,8,26,0.00,6,Snow,242
2012-11-28,28,22,15,21,15,9,93,68,47,30.24,30.16,30.05,10,10,10,15,8,17,0.00,3,Snow,271
2012-11-29,28,24,21,23,19,16,86,78,69,30.31,30.20,30.11,10,10,4,12,5,9,0.00,5,,2
2012-11-30,33,26,19,30,20,12,87,83,74,30.34,30.31,30.26,10,10,4,17,9,24,0.00,7,Snow,61